New Castle, PA

2:17 AM EDT on June 23, 2017 (GMT -0400)
New Castle Municipal

Weather History for KUCP - October, 2011

Change the Weather History Date:

Friday, October 14, 2011

  Actual Average Record
Temperature  
Mean Temperature 56 °F -  
Max Temperature 61 °F 65 °F 86 °F (1928)
Min Temperature 50 °F 41 °F 24 °F (1934)
Degree Days  
Heating Degree Days 10    
Growing Degree Days 6 (Base 50)    
Moisture  
Dew Point 51 °F    
Average Humidity 84    
Maximum Humidity 100    
Minimum Humidity 55    
Precipitation  
Precipitation 0.00 in - - ()
Sea Level Pressure  
Sea Level Pressure 29.49 in    
Wind  
Wind Speed 8 mph (SW)    
Max Wind Speed 22 mph    
Max Gust Speed 38 mph    
Visibility 8 miles    
Events Rain    
Averages and records for this station are not official NWS values.
T = Trace of Precipitation, MM = Missing Value Source: NWS Daily Summary

Daily Weather History Graph

Daily Weather History Graph

Search for Another Location

Airport or City:

Trip Planner

Search our weather history database for the weather conditions in past years. The results will help you decide how hot, cold, wet, or windy it might be!

Date:

Astronomy

Oct. 14, 2011 Rise Set
Actual Time 7:31 AM EDT 6:42 PM EDT
Civil Twilight 7:04 AM EDT 7:10 PM EDT
Nautical Twilight 6:32 AM EDT 7:42 PM EDT
Astronomical Twilight 6:00 AM EDT 8:14 PM EDT
Moon 7:53 PM EDT (10/14) 10:00 AM EDT (10/14)
Length of Visible Light 12h 06m
Length of Day
11h 11m
Waning Gibbous, 94% of the Moon is Illuminated
Oct 14
Waning Gibbous
Oct 19
Last Quarter
Oct 26
New
Nov 2
First Quarter
Nov 10
Full

Hourly Weather History & Observations

Time (EDT) Temp. Dew Point Humidity Pressure Visibility Wind Dir Wind Speed Gust Speed Precip Events Conditions
12:56 AM 59.0 °F 57.9 °F 96% 29.48 in 10.0 mi Variable 4.6 mph - N/A   Overcast
1:56 AM 59.0 °F 57.9 °F 96% 29.48 in 10.0 mi Variable 3.5 mph - N/A   Overcast
2:56 AM 59.0 °F 57.9 °F 96% 29.46 in 10.0 mi SE 4.6 mph - N/A   Overcast
3:19 AM 59.0 °F 57.2 °F 94% 29.42 in 10.0 mi Variable 4.6 mph - 0.00 in Rain Light Rain
3:33 AM 59.0 °F 57.2 °F 94% 29.42 in 1.5 mi SE 6.9 mph - 0.00 in Rain Heavy Rain
3:35 AM 57.2 °F 57.2 °F 100% 29.41 in 1.0 mi SE 8.1 mph - 0.00 in Rain Heavy Rain
3:44 AM 57.2 °F 57.2 °F 100% 29.41 in 1.5 mi SSE 3.5 mph - 0.00 in Rain Rain
3:56 AM 57.9 °F 57.9 °F 100% 29.44 in 3.0 mi Variable 5.8 mph - 0.00 in Rain Light Rain
4:25 AM 57.2 °F 57.2 °F 100% 29.40 in 8.0 mi Variable 4.6 mph - 0.00 in Rain Light Rain
4:45 AM 59.0 °F 57.2 °F 94% 29.40 in 10.0 mi Variable 3.5 mph - 0.00 in   Mostly Cloudy
4:56 AM 59.0 °F 57.9 °F 96% 29.43 in 9.0 mi South 8.1 mph - 0.00 in   Overcast
5:15 AM 57.2 °F 57.2 °F 100% 29.41 in 10.0 mi SSW 8.1 mph - N/A   Mostly Cloudy
5:35 AM 57.2 °F 57.2 °F 100% 29.41 in 10.0 mi SSW 5.8 mph - N/A   Overcast
5:56 AM 57.9 °F 56.8 °F 96% 29.45 in 10.0 mi Variable 4.6 mph - N/A   Overcast
6:56 AM 57.9 °F 56.8 °F 96% 29.45 in 3.0 mi SSW 4.6 mph - 0.00 in Rain Light Rain
7:56 AM 56.8 °F 55.9 °F 97% 29.46 in 9.0 mi WSW 10.4 mph - 0.00 in   Overcast
8:05 AM 57.2 °F 55.4 °F 94% 29.42 in 10.0 mi WSW 10.4 mph - N/A   Overcast
8:30 AM 55.4 °F 55.4 °F 100% 29.44 in 5.0 mi West 9.2 mph - 0.00 in Rain Light Rain
8:38 AM 55.4 °F 55.4 °F 100% 29.44 in 4.0 mi West 13.8 mph - 0.00 in Rain Light Rain
9:19 AM 55.4 °F 53.6 °F 94% 29.45 in 8.0 mi WSW 11.5 mph - 0.00 in Rain Light Rain
9:56 AM 55.9 °F 52.9 °F 89% 29.50 in 10.0 mi WSW 9.2 mph - 0.00 in   Mostly Cloudy
10:14 AM 55.4 °F 53.6 °F 94% 29.47 in 10.0 mi WSW 12.7 mph - N/A   Mostly Cloudy
10:56 AM 57.9 °F 52.9 °F 83% 29.51 in 10.0 mi WSW 10.4 mph - N/A   Mostly Cloudy
11:43 AM 57.2 °F 51.8 °F 82% 29.48 in 10.0 mi WSW 8.1 mph - N/A   Mostly Cloudy
11:56 AM 59.0 °F 50.9 °F 74% 29.52 in 10.0 mi WSW 9.2 mph - N/A   Mostly Cloudy
12:08 PM 59.0 °F 50.0 °F 72% 29.48 in 10.0 mi WSW 13.8 mph - N/A   Overcast
12:19 PM 59.0 °F 50.0 °F 72% 29.49 in 10.0 mi West 11.5 mph 23.0 mph N/A   Mostly Cloudy
12:56 PM 61.0 °F 48.9 °F 64% 29.52 in 10.0 mi WSW 13.8 mph - N/A   Mostly Cloudy
1:56 PM 52.9 °F 46.9 °F 80% 29.52 in 1.2 mi WSW 10.4 mph - 0.00 in Rain Light Rain
1:59 PM 53.6 °F 46.4 °F 77% 29.48 in 2.5 mi WSW 8.1 mph - 0.00 in Rain Light Rain
2:06 PM 53.6 °F 48.2 °F 82% 29.49 in 7.0 mi WSW 21.9 mph 38.0 mph 0.00 in Rain Light Rain
2:56 PM 56.8 °F 50.9 °F 80% 29.52 in 10.0 mi WSW 15.0 mph - 0.00 in   Scattered Clouds
3:56 PM 59.0 °F 43.9 °F 57% 29.53 in 10.0 mi WSW 21.9 mph - N/A   Partly Cloudy
4:56 PM 57.9 °F 41.9 °F 55% 29.55 in 10.0 mi WSW 19.6 mph - N/A   Partly Cloudy
5:56 PM 55.9 °F 39.9 °F 55% 29.57 in 10.0 mi West 11.5 mph - N/A   Partly Cloudy
6:56 PM 54.9 °F 39.9 °F 57% 29.60 in 10.0 mi West 9.2 mph - N/A   Scattered Clouds
7:56 PM 54.9 °F 38.8 °F 55% 29.62 in 10.0 mi WSW 11.5 mph - N/A   Mostly Cloudy
9:56 PM 50.9 °F 38.8 °F 63% 29.65 in 10.0 mi WSW 5.8 mph - N/A   Scattered Clouds
10:56 PM 50.9 °F 37.9 °F 61% 29.64 in 10.0 mi SW 5.8 mph - N/A   Scattered Clouds
11:56 PM 50.9 °F 38.8 °F 63% 29.64 in 10.0 mi SW 8.1 mph - N/A   Mostly Cloudy